Regional Weather Roundup
Issued by NWS Goodland, KS

Home | Current Version | Previous Version | Graphics & Text | Print | Product List | Glossary On
Versions: 1 2 3 4 5 6 7 8 9 10 11 12 13 14 15 16 17 18 19 20 21 22 23 24 25 26 27 28 29 30 31 32 33 34 35 36 37 38 39 40 41 42 43 44 45 46 47 48 49 50
000
ASUS43 KGLD 200159
RWRGLD

GOODLAND FORECAST AREA HOURLY WEATHER ROUNDUP
NATIONAL WEATHER SERVICE GOODLAND KS
800 PM MDT TUE SEP 19 2017

...OFFICIAL OBSERVATIONS...

CITY           SKY/WX    TMP DP  RH WIND       PRES   REMARKS
GOODLAND KS    CLOUDY    70  26  19 SW3       29.60R
HILL CITY KS   CLOUDY    81  35  19 S8        29.53R
IMPERIAL NEB   CLOUDY    65  38  36 N22G35    29.67R
MCCOOK NEB     CLOUDY    77  28  16 SW9       29.52R
AKRON CO       CLOUDY    55  30  38 N31G45    29.75R
BURLINGTON CO  CLOUDY    66  26  22 W7        29.64R
LIMON CO       CLOUDY    58  36  43 N30G39    29.76R
$$

...UNOFFICIAL OBSERVATIONS...

CITY           SKY/WX    TMP DP  RH WIND       PRES   REMARKS
LENORA KS        N/A     73  32  22 MISG        N/A
NORTON KS      CLEAR     81  21  11 S9G17     29.51R
SHARON SPRINGS   N/A     67  34  29 S8          N/A
TRENTON NEB      N/A     69  32  25 NW20G26     N/A
KIT CARSON CO    N/A     69  28  21 CALM        N/A
YUMA CO        FAIR      59  21  23 N25G39    29.74R
$$




USA.gov is the U.S. government's official web portal to all federal, state and local government web resources and services.